Back to catalog

STARLINK-4102

AliveCommunicationsVLEO
NORAD 53143·PAYLOAD·🇺🇸 United States

Launched Jul 17, 2022 from Cape Canaveral Space Force Station

Loading…

Next Passes (next 24 hours)

TLE

FreshSource: CelesTrak SupGP

Epoch: Sep 14, 2026, 14:00 UTC

1 53143C 22083M   26257.58381944  .00251550  00000+0  63519-2 0  2575
2 53143  53.1610  37.6714 0000966  75.0392 146.4518 15.39128839    18

Track STARLINK-4102 in real time with AllMySat

Download on the App Store